Location: Colebrook
(42.0017°N, 73.0973°W)
Time: 09:55:31
(UTC-04:00)

Amateur Radio Satellites - All Passes

Search period start: 01 November 2014 09:25
Search period end: 02 November 2014 08:25
Location: Colebrook, 42.0017°N, 73.0973°W

Satellite Date Start Highest point End Downlink Frequencies (MHz)
Time Altitude Azimuth
ISS 01 Nov 09:51:59 09:55:11 48° 140° (SE) 09:58:24 145.800 FM
UKube-1 01 Nov 10:11:48 10:15:54 38° 98° (E) 10:19:57 145.840 MHz, 145.915 MHz
ZACube-1 01 Nov 10:23:05 10:26:15 21° 94° (E) 10:29:24 437.345 MHz
Sapphire 01 Nov 10:40:59 10:45:58 35° 51° (NE) 10:50:56 437.095 MHz 1200 baud AX-25 AFSK
Oscar 11 01 Nov 10:45:50 10:50:10 88° 284° (WNW) 10:54:29 145.825 FM, Beacon 2401.500 USB
KITSAT 1 01 Nov 10:58:46 11:06:49 78° 118° (ESE) 11:14:54 435.175 FM
SO-50 01 Nov 10:59:44 11:04:09 60° 119° (ESE) 11:08:43 436.795 FM
PCSat 01 Nov 11:02:23 11:07:43 55° 56° (NE) 11:13:01 145.825 MHz
FUNcube-1 01 Nov 11:05:00 11:09:09 62° 101° (E) 11:13:15 145.950 - 145.970 MHz USB
HO-68 01 Nov 11:05:52 11:12:30 42° 296° (WNW) 11:19:07 435.675 MHz FM
ISS 01 Nov 11:29:04 11:32:00 28° 338° (NNW) 11:34:57 145.800 FM
UOSAT-12 01 Nov 11:40:25 11:43:08 16° 109° (ESE) 11:45:54 437.025 FM, 437.400 FM
UKube-1 01 Nov 11:48:35 11:51:49 21° 295° (WNW) 11:55:02 145.840 MHz, 145.915 MHz
ZACube-1 01 Nov 11:58:59 12:02:44 32° 290° (WNW) 12:06:25 437.345 MHz
Oscar 19 01 Nov 12:12:34 12:15:38 16° 61° (ENE) 12:18:42 437.125 CW, 437.150 USB
Sapphire 01 Nov 12:24:27 12:29:22 35° 249° (WSW) 12:34:14 437.095 MHz 1200 baud AX-25 AFSK
SO-50 01 Nov 12:41:42 12:45:06 20° 319° (NW) 12:48:35 436.795 FM
FUNcube-1 01 Nov 12:43:19 12:45:00 12° 298° (WNW) 12:46:40 145.950 - 145.970 MHz USB
PCSat 01 Nov 12:46:41 12:50:42 22° 254° (WSW) 12:54:43 145.825 MHz
AO-27 01 Nov 12:51:24 12:54:30 16° 60° (ENE) 12:57:36 436.795 MHz FM
KITSAT 1 01 Nov 12:56:09 13:03:02 30° 320° (NW) 13:09:58 435.175 FM
Oscar 16 01 Nov 12:57:41 13:02:29 41° 69° (ENE) 13:07:18 437.025 USB, Beacon 2401.1428
JAS-1B 01 Nov 13:01:50 13:07:10 43° 68° (ENE) 13:12:35 435.800 - 435.900 CW/SSB
ISS 01 Nov 13:07:23 13:09:30 16° 358° (N) 13:11:37 145.800 FM
Gurwin Techsat 1B 01 Nov 13:13:15 13:15:46 14° 58° (ENE) 13:18:18 435.225 FM
UOSAT-12 01 Nov 13:18:09 13:22:45 63° 306° (NW) 13:27:27 437.025 FM, 437.400 FM
TMSAT-1 01 Nov 13:19:57 13:21:35 11° 57° (ENE) 13:23:13 436.925 FM
AO-Echo 01 Nov 13:24:32 13:29:08 37° 68° (ENE) 13:33:53 ?
Uribyol 2 01 Nov 13:32:31 13:37:18 38° 68° (ENE) 13:42:07 436.500 FM
ITAMSAT 1 01 Nov 13:40:38 13:45:31 42° 69° (ENE) 13:50:26 435.822 SSB
Saudisat 1A 01 Nov 13:44:55 13:48:59 34° 49° (NE) 13:53:01 436.775 MHz
Oscar 19 01 Nov 13:49:18 13:54:25 69° 258° (WSW) 13:59:32 437.125 CW, 437.150 USB
AO-27 01 Nov 14:28:11 14:33:24 72° 257° (WSW) 14:38:39 436.795 MHz FM
Oscar 16 01 Nov 14:37:49 14:41:58 24° 266° (W) 14:46:08 437.025 USB, Beacon 2401.1428
ISS 01 Nov 14:44:19 14:47:04 23° 18° (NNE) 14:49:48 145.800 FM
Gurwin Techsat 1B 01 Nov 14:49:40 14:54:59 86° 256° (WSW) 15:00:20 435.225 FM
JAS-1B 01 Nov 14:53:35 14:58:08 24° 266° (W) 15:02:43 435.800 - 435.900 CW/SSB
TMSAT-1 01 Nov 14:55:19 15:00:37 80° 75° (ENE) 15:05:57 436.925 FM
AO-7 01 Nov 14:57:45 15:05:00 36° 58° (ENE) 15:12:17 29.400 - 29.500 MHz
KITSAT 1 01 Nov 14:58:24 15:01:41 13° 349° (NNW) 15:04:58 435.175 FM
UOSAT-12 01 Nov 15:01:51 15:03:51 12° 326° (NNW) 15:05:52 437.025 FM, 437.400 FM
AO-Echo 01 Nov 15:03:47 15:07:58 27° 266° (W) 15:12:18 ?
Uribyol 2 01 Nov 15:12:25 15:16:50 27° 265° (W) 15:21:17 436.500 FM
Uosat F 01 Nov 15:18:10 15:21:47 20° 63° (ENE) 15:25:26 435.120 FM
ITAMSAT 1 01 Nov 15:20:56 15:25:09 25° 266° (W) 15:29:24 435.822 SSB
Saudisat 1A 01 Nov 15:24:40 15:28:26 28° 246° (WSW) 15:32:11 436.775 MHz
JAS-2 01 Nov 15:59:22 16:04:01 21° 56° (NE) 16:09:01 435.800 - 435.900 CW/SSB, 435.910 FM
ISS 01 Nov 16:20:43 16:24:03 77° 217° (SW) 16:27:23 145.800 FM
Gurwin Techsat 1B 01 Nov 16:35:03 16:35:41 10° 273° (W) 16:36:19 435.225 FM
TMSAT-1 01 Nov 16:38:52 16:41:08 13° 271° (W) 16:43:25 436.925 FM
AO-7 01 Nov 16:49:23 16:57:26 56° 258° (WSW) 17:05:34 29.400 - 29.500 MHz
Uosat F 01 Nov 16:55:18 17:00:11 51° 260° (W) 17:05:07 435.120 FM
KITSAT 1 01 Nov 16:56:58 17:01:22 15° 20° (NNE) 17:05:45 435.175 FM
Hamsat 01 Nov 17:19:27 17:23:18 37° 71° (ENE) 17:27:10 145.90 MHz
OPAL 01 Nov 17:28:41 17:32:36 23° 96° (E) 17:36:31 ?
JAS-2 01 Nov 17:41:44 17:48:04 80° 257° (WSW) 17:55:19 435.800 - 435.900 CW/SSB, 435.910 FM
SO-50 01 Nov 17:51:58 17:54:05 13° 34° (NNE) 17:56:11 436.795 FM
KITSAT 1 01 Nov 18:51:44 18:59:20 42° 47° (NE) 19:06:53 435.175 FM
SO-67 01 Nov 18:52:04 18:55:23 48° 74° (ENE) 18:58:43 435.3500 MHz FM
Hamsat 01 Nov 18:56:30 18:59:23 18° 267° (W) 19:02:17 145.90 MHz
OPAL 01 Nov 19:07:00 19:11:38 41° 293° (WNW) 19:16:14 ?
RS-15 01 Nov 19:08:47 19:15:11 18° 98° (E) 19:21:31 29.354 - 29.394 USB, Beacon 29.352 USB
STRAND 1 01 Nov 19:26:22 19:31:22 48° 100° (E) 19:36:18 ?
SO-50 01 Nov 19:30:47 19:35:36 62° 54° (NE) 19:40:27 436.795 FM
JAS-2 01 Nov 19:31:45 19:34:26 13° 278° (W) 19:37:15 435.800 - 435.900 CW/SSB, 435.910 FM
HO-68 01 Nov 19:47:31 19:53:40 32° 61° (ENE) 19:59:50 435.675 MHz FM
UOSAT-12 01 Nov 20:08:07 20:11:34 20° 41° (NE) 20:15:00 437.025 FM, 437.400 FM
Oscar 10/S400 01 Nov 20:13:26 20:48:29 51° 199° (SSW) 04:03:05 145.825 - 145.975 CW/USB, Beacon 145.810 USB
AO-40 01 Nov 20:27:35 22:30:48 28° 213° (SSW) 01:33:10 Beacon 2401.320
KITSAT 1 01 Nov 20:47:11 20:54:53 51° 248° (WSW) 21:02:34 435.175 FM
STRAND 1 01 Nov 21:06:19 21:10:12 22° 297° (WNW) 21:14:05 ?
UKube-1 01 Nov 21:07:34 21:11:31 35° 69° (ENE) 21:15:31 145.840 MHz, 145.915 MHz
MaSat-1 01 Nov 21:08:24 21:11:10 19° 108° (ESE) 21:13:45 437.345 MHz
SO-50 01 Nov 21:12:33 21:15:42 17° 250° (WSW) 21:18:52 436.795 FM
RS-15 01 Nov 21:14:38 21:25:37 79° 119° (ESE) 21:36:32 29.354 - 29.394 USB, Beacon 29.352 USB
ZACube-1 01 Nov 21:20:02 21:23:20 20° 66° (ENE) 21:26:36 437.345 MHz
HO-68 01 Nov 21:34:06 21:41:03 53° 259° (W) 21:48:04 435.675 MHz FM
Oscar 11 01 Nov 21:40:56 21:45:14 75° 75° (ENE) 21:49:33 145.825 FM, Beacon 2401.500 USB
UOSAT-12 01 Nov 21:47:29 21:52:11 67° 240° (WSW) 21:56:46 437.025 FM, 437.400 FM
FUNcube-1 01 Nov 22:01:15 22:05:38 53° 73° (ENE) 22:09:57 145.950 - 145.970 MHz USB
MaSat-1 01 Nov 22:43:01 22:46:22 30° 301° (WNW) 22:49:26 437.345 MHz
UKube-1 01 Nov 22:44:28 22:47:47 21° 266° (W) 22:51:08 145.840 MHz, 145.915 MHz
ZACube-1 01 Nov 22:55:13 22:59:28 40° 262° (W) 23:03:40 437.345 MHz
RS-15 01 Nov 23:29:17 23:39:06 36° 325° (NW) 23:49:02 29.354 - 29.394 USB, Beacon 29.352 USB
FUNcube-1 01 Nov 23:39:45 23:42:17 15° 269° (W) 23:44:49 145.950 - 145.970 MHz USB
JAS-1B 02 Nov 00:45:15 00:48:54 14° 89° (E) 00:52:46 435.800 - 435.900 CW/SSB
Oscar 16 02 Nov 01:10:33 01:13:04 14° 90° (E) 01:15:34 437.025 USB, Beacon 2401.1428
Sapphire 02 Nov 01:23:46 01:28:18 28° 109° (ESE) 01:32:51 437.095 MHz 1200 baud AX-25 AFSK
AO-Echo 02 Nov 01:33:19 01:35:24 12° 88° (E) 01:37:28 ?
PCSat 02 Nov 01:44:29 01:49:37 46° 113° (ESE) 01:54:47 145.825 MHz
Uribyol 2 02 Nov 01:46:48 01:48:54 12° 89° (E) 01:50:58 436.500 FM
RS-15 02 Nov 01:48:04 01:55:57 21° 359° (N) 01:03:58 29.354 - 29.394 USB, Beacon 29.352 USB
ITAMSAT 1 02 Nov 01:54:40 01:57:22 14° 90° (E) 01:00:03 435.822 SSB
Oscar 19 02 Nov 01:00:37 01:05:27 41° 98° (E) 01:10:15 437.125 CW, 437.150 USB
JAS-1B 02 Nov 01:32:53 01:40:09 76° 104° (ESE) 01:48:51 435.800 - 435.900 CW/SSB
AO-27 02 Nov 01:41:03 01:45:58 40° 98° (E) 01:50:49 436.795 MHz FM
Oscar 16 02 Nov 01:47:49 01:52:56 72° 286° (WNW) 01:58:02 437.025 USB, Beacon 2401.1428
Gurwin Techsat 1B 02 Nov 02:05:46 02:10:41 37° 97° (E) 02:15:33 435.225 FM
Sapphire 02 Nov 02:06:22 02:11:30 43° 307° (NW) 02:16:41 437.095 MHz 1200 baud AX-25 AFSK
AO-Echo 02 Nov 02:09:27 02:14:48 84° 285° (WNW) 02:20:03 ?
TMSAT-1 02 Nov 02:11:12 02:15:52 31° 96° (E) 02:20:30 436.925 FM
Uribyol 2 02 Nov 02:23:45 02:28:58 80° 286° (WNW) 02:34:08 436.500 FM
PCSat 02 Nov 02:28:34 02:33:13 29° 312° (NW) 02:37:55 145.825 MHz
ITAMSAT 1 02 Nov 02:32:10 02:37:23 71° 287° (WNW) 02:42:33 435.822 SSB
Oscar 19 02 Nov 02:40:26 02:44:34 25° 295° (WNW) 02:48:41 437.125 CW, 437.150 USB
RS-15 02 Nov 03:03:03 03:12:57 35° 34° (NE) 03:23:08 29.354 - 29.394 USB, Beacon 29.352 USB
AO-27 02 Nov 03:20:57 03:25:16 27° 295° (WNW) 03:29:33 436.795 MHz FM
JAS-1B 02 Nov 03:24:49 03:30:15 24° 299° (WNW) 03:36:22 435.800 - 435.900 CW/SSB
PANSAT 02 Nov 03:24:51 03:25:27 10° 175° (S) 03:26:02 not established
OPAL 02 Nov 03:43:36 03:48:26 46° 68° (ENE) 03:53:15 ?
Gurwin Techsat 1B 02 Nov 03:45:58 03:50:31 29° 294° (WNW) 03:55:02 435.225 FM
AO-7 02 Nov 03:50:10 03:58:15 51° 101° (ESE) 04:06:17 29.400 - 29.500 MHz
AO-Echo 02 Nov 03:50:41 03:52:41 12° 302° (WNW) 03:54:42 ?
TMSAT-1 02 Nov 03:51:01 03:55:47 35° 292° (WNW) 04:00:31 436.925 FM
JAS-2 02 Nov 03:52:02 03:57:16 19° 86° (E) 04:02:21 435.800 - 435.900 CW/SSB, 435.910 FM
Uosat F 02 Nov 04:02:31 04:07:23 47° 100° (E) 04:12:13 435.120 FM
Uribyol 2 02 Nov 04:06:10 04:07:34 11° 303° (WNW) 04:08:57 436.500 FM
Saudisat 1A 02 Nov 04:30:29 04:34:50 68° 121° (ESE) 04:39:13 436.775 MHz
RS-15 02 Nov 05:15:29 05:26:43 85° 240° (WSW) 05:38:26 29.354 - 29.394 USB, Beacon 29.352 USB
OPAL 02 Nov 05:23:37 05:27:30 22° 264° (W) 05:31:23 ?
JAS-2 02 Nov 05:35:15 05:43:11 88° 285° (WNW) 05:50:46 435.800 - 435.900 CW/SSB, 435.910 FM
Hamsat 02 Nov 05:39:55 05:44:10 75° 102° (ESE) 05:48:25 145.90 MHz
Uosat F 02 Nov 05:42:01 05:45:51 22° 296° (WNW) 05:49:39 435.120 FM
STRAND 1 02 Nov 05:42:34 05:47:40 73° 74° (ENE) 05:52:50 ?
AO-7 02 Nov 05:43:19 05:50:48 39° 300° (WNW) 05:58:18 29.400 - 29.500 MHz
MaSat-1 02 Nov 05:51:22 05:53:30 24° 58° (ENE) 05:55:32 437.345 MHz
Saudisat 1A 02 Nov 06:11:53 06:14:51 18° 320° (NW) 06:17:51 436.775 MHz
SO-67 02 Nov 06:47:30 06:50:54 55° 100° (E) 06:54:16 435.3500 MHz FM
Hamsat 02 Nov 07:18:32 07:19:30 11° 298° (WNW) 07:20:28 145.90 MHz
JAS-2 02 Nov 07:21:41 07:27:07 21° 304° (NW) 07:32:29 435.800 - 435.900 CW/SSB, 435.910 FM
STRAND 1 02 Nov 07:24:52 07:27:23 14° 270° (W) 07:29:56 ?
RS-15 02 Nov 07:29:52 07:37:28 21° 260° (W) 07:45:18 29.354 - 29.394 USB, Beacon 29.352 USB
HO-68 02 Nov 08:01:34 08:07:46 30° 95° (E) 08:13:55 435.675 MHz FM
ISS 02 Nov 08:03:15 08:06:06 27° 136° (SE) 08:08:57 145.800 FM
